Regional Weather Roundup
Issued by NWS

Home | Current Version | Previous Version | Graphics & Text | Print | Product List | Glossary On
Versions: 1 2 3 4 5 6 7 8 9 10 11 12 13 14 15 16 17 18 19 20 21 22 23 24 25 26 27 28
000
ASUS45 KSLC 080210
RWRUT

UTAH REGIONAL WEATHER ROUNDUP
NATIONAL WEATHER SERVICE SALT LAKE CITY UT
700 PM MST WED DEC 07 2016

UTZ001>011-023>025-080300-

NORTHERN UTAH

CITY           SKY/WX    TMP DP  RH WIND       PRES   REMARKS
BRIGHAM CITY     N/A     21  12  66 CALM      30.34R
HILL AFB       CLEAR     19   8  62 CALM      30.29S
LOGAN          CLEAR     18   8  65 SE6       30.32R WCI  10
OGDEN          CLEAR     20  10  65 CALM      30.30S
SALT LAKE CITY PTCLDY    22  13  68 N5        30.32R WCI  16
TOOELE VALLEY  CLEAR     19  16  86 SW6       30.32S WCI  11
WENDOVER       PTCLDY    19   3  49 CALM      30.31S
HEBER CITY     PTCLDY    14   5  67 E3        30.23S
WEST JORDAN    CLEAR     19  16  86 SW3       30.31S

$$

UTZ011>015-024>027-080300-

CENTRAL/NORTHEAST UTAH

CITY           SKY/WX    TMP DP  RH WIND       PRES   REMARKS
PROVO AIRPORT  PTCLDY    23  15  71 NW7       30.31R WCI  15
MOAB/CANYONLAN CLEAR     23   1  38 N5        30.23R WCI  17
DELTA          CLEAR     19   3  49 N9        30.27R WCI   9
PRICE          PTCLDY    17  -7  34 N10       30.21R WCI   5
RICHFIELD      PTCLDY    21   9  58 N3        30.27R
ROOSEVELT      PTCLDY    23   5  46 SE6       30.28R WCI  16
VERNAL         CLEAR     18   4  54 NE6       30.27R WCI  10

$$

UTZ013>016-019>022-027-080300-

SOUTHERN UTAH

CITY           SKY/WX    TMP DP  RH WIND       PRES   REMARKS
BRYCE CANYON   PTCLDY    12   1  61 NE5       30.14  WCI   4
CEDAR CITY     PTCLDY    20   8  60 N7        30.18R WCI  11
MILFORD        CLEAR     20   6  55 N12       30.23R WCI   8
ST GEORGE      PTCLDY    41   9  26 NE12      30.20R
HANKSVILLE     PTCLDY    27   3  36 NE8       30.26R WCI  18
KANAB          PTCLDY    30   5  34 N5        30.20  WCI  25
BLANDING       PTCLDY    21   0  40 NE6       30.25S WCI  13

$$

REGIONAL REPORTS     COLORADO/ARIZONA

CITY           SKY/WX    TMP DP  RH WIND       PRES   REMARKS
CRAIG, CO      CLEAR     -1  -8  72 CALM      30.27R
GRAND JUNCTION PTCLDY    24  11  57 NE14      30.24R WCI  12
RIFLE, CO      CLEAR     16   7  67 SW6       30.27R WCI   7
MONTROSE, CO   CLEAR     18   8  65 S7        30.25R WCI   9
CORTEZ, CO     CLOUDY    24   4  42 CALM      30.19R
COLORADO CITY    N/A     27  10  50 N8        30.18R WCI  18
PAGE, AZ       PTCLDY    35   3  26 E3        30.18R
GRAND CANYON   PTCLDY    24  17  74 NE5       30.13R WCI  18
KINGMAN, AZ    PTCLDY    38   5  25 E8        30.13R WCI  32
FLAGSTAFF, AZ  PTCLDY    30  17  58 CALM      30.12R

$$

REGIONAL REPORTS    NEVADA/IDAHO/WYOMING

CITY           SKY/WX    TMP DP  RH WIND       PRES   REMARKS
LAS VEGAS, NV  MOCLDY    49   2  14 N3        30.17R
ELY, NY        CLEAR      9  -1  64 S5        30.16R WCI   1
ELKO, NV       MOCLDY    20   5  52 NE8       30.19F WCI  10
POCATELLO, ID  CLEAR      2   0  91 S3        30.34R
BURLEY, ID     CLEAR      9   6  88 E3        30.32R
FORT BRIDGER,    N/A     10   1  66 N3        30.22R
EVANSTON, WY   CLOUDY     9   0  67 N5        30.18R WCI   1
ROCK SPRINGS,  CLOUDY     2  -3  80 S7        30.21R WCI -11

$$




USA.gov is the U.S. government's official web portal to all federal, state and local government web resources and services.